Date String (YYYY-MM-DD hh:mm:ss) UTC,Instrument flags,absolute air pressure of the measurement (hPa),sample flow rate (lpm),inlet stack bypass flow (lpm),air temperature of the measurement (°C),ambient temperature measured by the external sensor (°C),aerosol sample conditioner tube jacket temperature (°C),OPC LED temperature (°C),internal box temperature (°C),relative humidity of the measurement (%),span deviation,mass concentration of particles derived from Lorenz-Mie calculation of OPC scattering (μg/m³),mass concentration of particles derived from Lorenz-Mie calculation of OPC scattering (μg/m³),mass concentration of particles derived from Lorenz-Mie calculation of OPC scattering (μg/m³)
DateTimeUTC,F1_M11,P_M11,Q1_M11,Q2_M11,T1_M11,T2_M11,T3_M11,T4_M11,T5_M11,U1_M11,ZSPAN_M11,X2_M11,X0_M11,X1_M11
2023-07-26 22:00:00,SystemResetWarning,0834.5,5.02,000.00,030.5,025.6,000.0,037.8,030.5,34.5,0000.0,0004.26,0008.98,0003.29
2023-07-26 22:01:00,SystemResetWarning,0834.5,4.99,000.00,030.6,026.1,000.0,037.9,030.6,33.1,0000.0,0004.24,0008.80,0003.31
2023-07-26 22:02:00,SystemResetWarning,0834.5,5.00,000.00,030.6,026.6,000.0,038.0,030.7,31.8,0000.0,0004.25,0009.06,0003.33
2023-07-26 22:03:00,SystemResetWarning,0834.5,5.01,000.00,030.6,027.0,000.0,038.1,030.8,32.2,0000.0,0004.33,0009.27,0003.37
2023-07-26 22:04:00,SystemResetWarning,0834.5,4.99,000.00,030.7,027.3,000.0,038.2,030.9,31.3,0000.0,0004.40,0009.42,0003.41
2023-07-26 22:05:00,SystemResetWarning,0834.5,4.98,000.00,030.7,026.6,000.0,038.2,030.9,31.7,0000.0,0004.41,0009.74,0003.44
2023-07-26 22:06:00,SystemResetWarning,0834.4,5.02,000.00,030.7,025.2,000.0,038.1,030.7,31.1,0000.0,0004.42,0009.48,0003.47
2023-07-26 22:07:00,SystemResetWarning,0834.3,5.01,000.00,030.6,024.9,000.0,038.1,030.5,31.9,0000.0,0004.37,0009.45,0003.46
2023-07-26 22:08:00,SystemResetWarning,0834.4,5.00,000.00,030.5,025.1,000.0,038.1,030.3,32.9,0000.0,0004.32,0009.89,0003.45
2023-07-26 22:09:00,SystemResetWarning,0834.5,5.00,000.00,030.4,025.5,000.0,038.2,030.4,32.8,0000.0,0004.33,0010.07,0003.44
2023-07-26 22:10:00,SystemResetWarning,0834.5,5.00,000.00,030.3,026.0,000.0,038.2,030.5,32.7,0000.0,0004.37,0010.67,0003.45
2023-07-26 22:11:00,SystemResetWarning,0834.6,4.99,000.00,030.3,026.4,000.0,038.2,030.6,33.5,0000.0,0004.41,0010.93,0003.46
2023-07-26 22:12:00,SystemResetWarning,0834.6,5.00,000.00,030.3,026.9,000.0,038.3,030.7,33.6,0000.0,0004.49,0011.90,0003.46
2023-07-26 22:13:00,SystemResetWarning,0835.0,5.00,000.00,030.3,027.2,000.0,038.3,030.9,31.7,0000.0,0004.53,0011.70,0003.47
2023-07-26 22:14:00,SystemResetWarning,0835.1,5.00,000.00,030.3,026.7,000.0,038.2,030.9,31.6,0000.0,0004.47,0012.28,0003.46
2023-07-26 22:15:00,SystemResetWarning,0835.1,5.00,000.00,030.3,025.3,000.0,038.1,030.7,32.5,0000.0,0004.42,0012.50,0003.45
2023-07-26 22:16:00,SystemResetWarning,0834.9,5.01,000.00,030.2,024.9,000.0,038.0,030.5,32.0,0000.0,0004.40,0012.16,0003.43
2023-07-26 22:17:00,SystemResetWarning,0834.9,5.01,000.00,030.1,025.0,000.0,038.0,030.3,32.3,0000.0,0004.41,0012.62,0003.40
2023-07-26 22:18:00,SystemResetWarning,0834.7,4.99,000.00,030.0,025.5,000.0,038.1,030.4,34.0,0000.0,0004.42,0012.73,0003.39
2023-07-26 22:19:00,SystemResetWarning,0835.0,5.00,000.00,029.9,026.0,000.0,038.1,030.5,33.1,0000.0,0004.41,0012.08,0003.37
2023-07-26 22:20:00,SystemResetWarning,0835.1,5.01,000.00,029.9,026.4,000.0,038.1,030.6,33.1,0000.0,0004.40,0012.18,0003.35
2023-07-26 22:21:00,SystemResetWarning,0835.0,5.00,000.00,029.9,026.9,000.0,038.1,030.7,31.9,0000.0,0004.30,0011.73,0003.32
2023-07-26 22:22:00,SystemResetWarning,0834.6,5.00,000.00,029.9,027.2,000.0,038.1,030.8,31.0,0000.0,0004.23,0011.36,0003.29
2023-07-26 22:23:00,SystemResetWarning,0834.8,4.99,000.00,029.9,027.4,000.0,038.1,030.8,31.6,0000.0,0004.17,0010.49,0003.27
2023-07-26 22:24:00,SystemResetWarning,0835.1,4.99,000.00,029.9,026.2,000.0,038.0,030.7,31.6,0000.0,0004.12,0010.25,0003.25
2023-07-26 22:25:00,SystemResetWarning,0835.1,5.01,000.00,029.9,025.0,000.0,037.8,030.5,32.6,0000.0,0004.10,0010.08,0003.24
2023-07-26 22:26:00,SystemResetWarning,0835.1,5.01,000.00,029.8,024.9,000.0,037.8,030.4,31.2,0000.0,0004.11,0009.98,0003.23
2023-07-26 22:27:00,SystemResetWarning,0835.1,5.00,000.00,029.6,025.2,000.0,037.8,030.2,32.7,0000.0,0004.16,0010.23,0003.22
2023-07-26 22:28:00,SystemResetWarning,0835.2,4.99,000.00,029.6,025.7,000.0,037.8,030.3,31.4,0000.0,0004.13,0009.68,0003.22
2023-07-26 22:29:00,SystemResetWarning,0834.7,5.01,000.00,029.6,026.2,000.0,037.8,030.4,29.6,0000.0,0004.12,0009.65,0003.22
2023-07-26 22:30:00,SystemResetWarning,0835.0,4.99,000.00,029.6,026.6,000.0,037.8,030.5,29.5,0000.0,0004.11,0009.67,0003.22
2023-07-26 22:31:00,SystemResetWarning,0834.7,5.00,000.00,029.6,027.0,000.0,037.9,030.6,30.3,0000.0,0004.08,0009.45,0003.21
2023-07-26 22:32:00,SystemResetWarning,0834.5,5.00,000.00,029.6,027.3,000.0,037.9,030.7,29.4,0000.0,0004.06,0009.08,0003.21
2023-07-26 22:33:00,SystemResetWarning,0834.5,4.99,000.00,029.6,027.0,000.0,037.8,030.8,29.9,0000.0,0004.04,0009.06,0003.20
2023-07-26 22:34:00,SystemResetWarning,0834.4,4.99,000.00,029.6,025.6,000.0,037.7,030.6,30.3,0000.0,0004.02,0008.94,0003.19
2023-07-26 22:35:00,SystemResetWarning,0834.4,5.00,000.00,029.5,024.9,000.0,037.6,030.4,30.6,0000.0,0004.00,0008.88,0003.18
2023-07-26 22:36:00,SystemResetWarning,0834.4,5.01,000.00,029.4,025.1,000.0,037.6,030.2,30.4,0000.0,0004.01,0008.32,0003.17
2023-07-26 22:37:00,SystemResetWarning,0834.4,5.00,000.00,029.3,025.5,000.0,037.6,030.2,30.3,0000.0,0004.02,0008.15,0003.16
2023-07-26 22:38:00,SystemResetWarning,0834.7,5.00,000.00,029.3,025.9,000.0,037.6,030.3,31.4,0000.0,0003.95,0007.89,0003.14
2023-07-26 22:39:00,SystemResetWarning,0834.9,5.01,000.00,029.3,026.4,000.0,037.6,030.4,31.5,0000.0,0003.92,0008.19,0003.13
2023-07-26 22:40:00,SystemResetWarning,0834.7,5.00,000.00,029.3,026.8,000.0,037.6,030.5,32.6,0000.0,0003.91,0008.66,0003.11
2023-07-26 22:41:00,SystemResetWarning,0834.8,5.00,000.00,029.4,027.2,000.0,037.7,030.6,32.6,0000.0,0003.87,0008.63,0003.09
2023-07-26 22:42:00,SystemResetWarning,0835.2,4.99,000.00,029.4,027.4,000.0,037.7,030.7,31.9,0000.0,0003.86,0008.58,0003.07
2023-07-26 22:43:00,SystemResetWarning,0835.1,4.99,000.00,029.4,026.4,000.0,037.6,030.6,31.1,0000.0,0003.86,0009.45,0003.04
2023-07-26 22:44:00,SystemResetWarning,0835.0,5.01,000.00,029.3,025.0,000.0,037.4,030.4,30.8,0000.0,0003.87,0009.57,0003.02
2023-07-26 22:45:00,SystemResetWarning,0834.7,5.00,000.00,029.3,024.7,000.0,037.4,030.2,31.2,0000.0,0003.84,0009.49,0003.00
2023-07-26 22:46:00,SystemResetWarning,0834.7,5.01,000.00,029.1,025.0,000.0,037.4,030.1,31.7,0000.0,0003.80,0009.47,0002.99
2023-07-26 22:47:00,SystemResetWarning,0834.8,5.00,000.00,029.1,025.5,000.0,037.4,030.1,32.5,0000.0,0003.79,0009.85,0002.99
2023-07-26 22:48:00,SystemResetWarning,0835.2,5.00,000.00,029.1,026.0,000.0,037.4,030.3,32.9,0000.0,0003.78,0009.89,0002.99
2023-07-26 22:49:00,SystemResetWarning,0835.3,5.00,000.00,029.1,026.4,000.0,037.5,030.4,32.4,0000.0,0003.81,0010.45,0002.98
2023-07-26 22:50:00,SystemResetWarning,0834.9,5.01,000.00,029.1,026.8,000.0,037.5,030.5,32.0,0000.0,0003.83,0010.76,0002.98
2023-07-26 22:51:00,SystemResetWarning,0834.9,5.00,000.00,029.1,027.2,000.0,037.5,030.6,31.8,0000.0,0003.86,0010.71,0002.99
2023-07-26 22:52:00,SystemResetWarning,0835.0,4.99,000.00,029.2,027.4,000.0,037.5,030.7,31.4,0000.0,0003.92,0011.51,0003.03
2023-07-26 22:53:00,SystemResetWarning,0835.0,4.99,000.00,029.2,026.6,000.0,037.4,030.6,32.4,0000.0,0003.94,0011.87,0003.05
2023-07-26 22:54:00,SystemResetWarning,0835.0,5.00,000.00,029.1,025.2,000.0,037.3,030.3,32.6,0000.0,0003.95,0010.93,0003.07
2023-07-26 22:55:00,SystemResetWarning,0835.0,5.01,000.00,029.1,024.8,000.0,037.2,030.2,31.7,0000.0,0003.97,0011.03,0003.08
2023-07-26 22:56:00,SystemResetWarning,0835.0,5.02,000.00,029.0,025.0,000.0,037.2,030.0,31.0,0000.0,0004.01,0011.20,0003.08
2023-07-26 22:57:00,SystemResetWarning,0834.9,4.99,000.00,028.9,025.4,000.0,037.2,030.1,32.1,0000.0,0004.05,0011.70,0003.08
2023-07-26 22:58:00,SystemResetWarning,0835.0,5.00,000.00,028.9,025.9,000.0,037.3,030.2,32.6,0000.0,0004.06,0011.51,0003.07
2023-07-26 22:59:00,SystemResetWarning,0835.0,5.00,000.00,028.9,026.3,000.0,037.3,030.3,32.0,0000.0,0004.05,0011.43,0003.07
